Weather History for Canby, MN

Change the Weather History Date:

Friday, July 12, 2013

  Actual Average (KMML) Record (KMML)
Temperature  
Mean Temperature 81 °F -  
Max Temperature 90 °F 83 °F 107 °F (1966)
Min Temperature 72 °F 62 °F 45 °F (1975)
Cooling Degree Days 16    
Growing Degree Days 31 (Base 50)    
Moisture  
Dew Point 65 °F    
Average Humidity 59    
Maximum Humidity 66    
Minimum Humidity 51    
Precipitation  
Precipitation 0.00 in - - ()
Sea Level Pressure  
Sea Level Pressure 29.85 in    
Wind  
Wind Speed 14 mph (South)    
Max Wind Speed 22 mph    
Max Gust Speed 32 mph    
Visibility 10 miles    
Events      
Averages and records for this station are not official NWS values.
T = Trace of Precipitation, MM = Missing Value Source: NWS Daily Summary

Daily Weather History Graph

Daily Weather History Graph

Search for Another Location

Airport:

Trip Planner

Search our weather history database for the weather conditions in past years. The results will help you decide how hot, cold, wet, or windy it might be!

Date:

Astronomy

Jul. 12, 2013 Rise Set
Actual Time 5:51 AM CDT 9:09 PM CDT
Civil Twilight 5:15 AM CDT 9:45 PM CDT
Nautical Twilight 4:28 AM CDT 10:32 PM CDT
Astronomical Twilight 3:30 AM CDT 11:30 PM CDT
Moon 10:22 AM CDT (7/12) 11:06 PM CDT (7/12)
Length of Visible Light 16h 30m
Length of Day
15h 18m
Waxing Crescent, 17% of the Moon is Illuminated
Jul 12
Waxing Crescent
Jul 15
First Quarter
Jul 22
Full
Jul 29
Last Quarter
Aug 6
New

Hourly Weather History & Observations

Time (CDT) Temp. Heat Index Dew Point Humidity Pressure Visibility Wind Dir Wind Speed Gust Speed Precip Events Conditions
12:14 AM 74.7 °F - 62.2 °F 65% 29.91 in 10.0 mi South 10.4 mph 19.6 mph N/A   Clear
12:34 AM 74.7 °F - 62.1 °F 65% 29.92 in 10.0 mi SSE 10.4 mph - N/A   Clear
12:55 AM 74.3 °F - 62.2 °F 66% 29.92 in 10.0 mi SSE 10.4 mph - N/A   Clear
1:15 AM 74.3 °F - 61.9 °F 65% 29.91 in 10.0 mi SE 9.2 mph - N/A   Clear
1:34 AM 74.5 °F - 61.5 °F 64% 29.91 in 10.0 mi SSE 9.2 mph - N/A   Clear
1:54 AM 74.7 °F - 61.2 °F 63% 29.91 in 10.0 mi SSE 11.5 mph - N/A   Clear
2:15 AM 74.7 °F - 61.0 °F 62% 29.90 in 10.0 mi South 10.4 mph 21.9 mph N/A   Clear
2:35 AM 74.5 °F - 60.8 °F 62% 29.90 in 10.0 mi South 9.2 mph 20.7 mph N/A   Clear
2:54 AM 74.5 °F - 60.8 °F 62% 29.90 in 10.0 mi South 15.0 mph 21.9 mph N/A   Clear
3:14 AM 74.3 °F - 60.8 °F 63% 29.89 in 10.0 mi SSW 15.0 mph 20.7 mph N/A   Clear
3:35 AM 74.3 °F - 60.3 °F 61% 29.88 in 10.0 mi South 13.8 mph 24.2 mph N/A   Clear
3:54 AM 74.3 °F - 59.9 °F 61% 29.88 in 10.0 mi South 16.1 mph 25.3 mph N/A   Clear
4:14 AM 73.8 °F - 59.9 °F 62% 29.88 in 10.0 mi SSW 16.1 mph 26.5 mph N/A   Clear
4:35 AM 73.8 °F - 59.9 °F 62% 29.88 in 10.0 mi SSW 13.8 mph 26.5 mph N/A   Clear
4:54 AM 73.4 °F - 59.9 °F 63% 29.88 in 10.0 mi SSW 12.7 mph 25.3 mph N/A   Clear
5:14 AM 72.9 °F - 59.7 °F 63% 29.88 in 10.0 mi SSW 15.0 mph 25.3 mph N/A   Clear
5:35 AM 72.7 °F - 59.5 °F 63% 29.88 in 10.0 mi SSW 19.6 mph 25.3 mph N/A   Clear
5:55 AM 72.5 °F - 59.4 °F 63% 29.88 in 10.0 mi SSW 15.0 mph 27.6 mph N/A   Clear
6:14 AM 72.5 °F - 59.4 °F 63% 29.88 in 10.0 mi SSW 13.8 mph 25.3 mph N/A   Clear
6:35 AM 72.5 °F - 59.4 °F 63% 29.88 in 10.0 mi SSW 16.1 mph 21.9 mph N/A   Clear
6:54 AM 72.5 °F - 59.7 °F 64% 29.87 in 10.0 mi South 17.3 mph 25.3 mph N/A   Clear
7:14 AM 73.4 °F - 59.7 °F 62% 29.87 in 10.0 mi South 15.0 mph 21.9 mph N/A   Clear
7:35 AM 73.8 °F - 59.9 °F 62% 29.87 in 10.0 mi South 15.0 mph 23.0 mph N/A   Clear
7:55 AM 74.3 °F - 60.3 °F 61% 29.87 in 10.0 mi SSW 13.8 mph 23.0 mph N/A   Clear
8:14 AM 74.8 °F - 60.3 °F 60% 29.87 in 10.0 mi South 15.0 mph 26.5 mph N/A   Clear
8:34 AM 75.6 °F - 60.8 °F 60% 29.86 in 10.0 mi South 16.1 mph 32.2 mph N/A   Clear
8:55 AM 76.5 °F - 61.2 °F 59% 29.86 in 10.0 mi South 16.1 mph 29.9 mph N/A   Clear
9:14 AM 77.2 °F - 61.7 °F 59% 29.86 in 10.0 mi SSW 13.8 mph 28.8 mph N/A   Clear
9:34 AM 77.9 °F - 61.7 °F 57% 29.86 in 10.0 mi South 19.6 mph 28.8 mph N/A   Clear
9:54 AM 78.8 °F - 62.2 °F 57% 29.86 in 10.0 mi South 13.8 mph 29.9 mph N/A   Clear
10:15 AM 79.9 °F - 63.0 °F 56% 29.85 in 10.0 mi SSW 16.1 mph 26.5 mph N/A   Clear
10:35 AM 80.8 °F 82.2 °F 63.5 °F 56% 29.85 in 10.0 mi SSW 18.4 mph 27.6 mph N/A   Clear
10:55 AM 82.0 °F 83.8 °F 64.8 °F 56% 29.85 in 10.0 mi South 15.0 mph 24.2 mph N/A   Clear
11:14 AM 82.6 °F 84.5 °F 65.3 °F 56% 29.85 in 10.0 mi SSW 20.7 mph 28.8 mph N/A   Clear
11:34 AM 83.3 °F 85.3 °F 65.5 °F 55% 29.85 in 10.0 mi SSW 21.9 mph 32.2 mph N/A   Clear
11:55 AM 84.9 °F 87.4 °F 66.7 °F 54% 29.85 in 10.0 mi South 15.0 mph 26.5 mph N/A   Clear
12:15 PM 85.1 °F 87.7 °F 66.7 °F 54% 29.84 in 10.0 mi South 18.4 mph 25.3 mph N/A   Clear
12:34 PM 86.0 °F 89.1 °F 67.5 °F 54% 29.84 in 10.0 mi South 21.9 mph 26.5 mph N/A   Clear
12:54 PM 86.4 °F 90.0 °F 68.5 °F 55% 29.84 in 10.0 mi South 10.4 mph 26.5 mph N/A   Clear
1:15 PM 86.9 °F 90.6 °F 68.2 °F 54% 29.84 in 10.0 mi South 17.3 mph 26.5 mph N/A   Clear
1:35 PM 87.8 °F 91.4 °F 68.4 °F 52% 29.83 in 10.0 mi South 15.0 mph 24.2 mph N/A   Clear
1:55 PM 88.0 °F 91.8 °F 68.4 °F 52% 29.83 in 10.0 mi South 16.1 mph 28.8 mph N/A   Clear
2:14 PM 88.7 °F 93.0 °F 69.1 °F 52% 29.83 in 10.0 mi South 15.0 mph 26.5 mph N/A   Clear
2:35 PM 88.9 °F 93.4 °F 69.1 °F 52% 29.83 in 10.0 mi South 17.3 mph 24.2 mph N/A   Clear
2:54 PM 88.9 °F 93.4 °F 69.4 °F 52% 29.82 in 10.0 mi SSE 18.4 mph 27.6 mph N/A   Clear
3:14 PM 89.4 °F 94.4 °F 69.4 °F 52% 29.81 in 10.0 mi South 17.3 mph 25.3 mph N/A   Clear
3:34 PM 89.6 °F 94.7 °F 69.6 °F 52% 29.81 in 10.0 mi SSE 17.3 mph 28.8 mph N/A   Clear
3:55 PM 89.8 °F 94.6 °F 69.4 °F 51% 29.81 in 10.0 mi SSE 19.6 mph 26.5 mph N/A   Clear
4:14 PM 89.2 °F 94.1 °F 69.3 °F 52% 29.81 in 10.0 mi SSE 17.3 mph 28.8 mph N/A   Clear
4:34 PM 90.1 °F 95.3 °F 69.6 °F 51% 29.81 in 10.0 mi South 18.4 mph 25.3 mph N/A   Clear
4:55 PM 89.8 °F 94.6 °F 69.4 °F 51% 29.81 in 10.0 mi South 19.6 mph 28.8 mph N/A   Clear
5:14 PM 90.0 °F 95.9 °F 70.7 °F 53% 29.81 in 10.0 mi South 15.0 mph 21.9 mph N/A   Clear
5:34 PM 89.4 °F 94.8 °F 70.0 °F 53% 29.80 in 10.0 mi SSE 13.8 mph 25.3 mph N/A   Clear
5:54 PM 89.2 °F 94.5 °F 70.2 °F 53% 29.81 in 10.0 mi South 15.0 mph 25.3 mph N/A   Clear
6:15 PM 88.9 °F 94.7 °F 70.7 °F 55% 29.81 in 10.0 mi South 13.8 mph 20.7 mph N/A   Clear
6:34 PM 88.5 °F 94.4 °F 70.9 °F 56% 29.81 in 10.0 mi South 15.0 mph 18.4 mph N/A   Clear
6:54 PM 88.2 °F 93.7 °F 70.5 °F 56% 29.81 in 10.0 mi South 13.8 mph 18.4 mph N/A   Clear
7:15 PM 87.3 °F 92.8 °F 71.1 °F 58% 29.81 in 10.0 mi South 6.9 mph 17.3 mph N/A   Clear
7:34 PM 86.9 °F 92.9 °F 71.4 °F 60% 29.81 in 10.0 mi South 9.2 mph - N/A   Clear
7:54 PM 86.4 °F 91.8 °F 70.9 °F 60% 29.81 in 10.0 mi South 11.5 mph 19.6 mph N/A   Clear
8:15 PM 86.0 °F 91.1 °F 70.7 °F 60% 29.82 in 10.0 mi South 15.0 mph 20.7 mph N/A   Clear
8:34 PM 85.3 °F 90.4 °F 70.7 °F 62% 29.81 in 10.0 mi South 8.1 mph 19.6 mph N/A   Clear
8:54 PM 84.4 °F 89.0 °F 70.7 °F 63% 29.81 in 10.0 mi South 12.7 mph 18.4 mph N/A   Clear
9:14 PM 84.4 °F 88.7 °F 70.2 °F 62% 29.81 in 10.0 mi South 13.8 mph 20.7 mph N/A   Scattered Clouds
9:35 PM 84.2 °F 88.7 °F 70.2 °F 63% 29.81 in 10.0 mi South 13.8 mph 21.9 mph N/A   Overcast
9:54 PM 83.3 °F 87.4 °F 70.2 °F 64% 29.80 in 10.0 mi South 12.7 mph 19.6 mph N/A   Overcast
10:15 PM 83.3 °F 87.4 °F 69.8 °F 64% 29.82 in 10.0 mi South 17.3 mph 21.9 mph N/A   Scattered Clouds
10:34 PM 83.3 °F 86.9 °F 69.3 °F 62% 29.83 in 10.0 mi South 16.1 mph 21.9 mph N/A   Scattered Clouds
10:54 PM 82.4 °F 86.1 °F 69.4 °F 65% 29.85 in 10.0 mi South 12.7 mph 21.9 mph N/A   Clear
11:14 PM 82.4 °F 85.8 °F 69.3 °F 64% 29.85 in 10.0 mi South 12.7 mph 21.9 mph N/A   Clear
11:34 PM 81.9 °F 85.2 °F 69.1 °F 65% 29.86 in 10.0 mi South 10.4 mph 20.7 mph N/A   Clear
11:54 PM 81.5 °F 84.6 °F 68.9 °F 65% 29.87 in 10.0 mi South 11.5 mph 17.3 mph N/A   Clear